Regional Weather Roundup
Issued by NWS

Home | Current Version | Previous Version | Text Only | Print | Product List | Glossary On
Versions: 1 2 3 4 5 6 7 8 9 10 11 12 13 14 15 16 17 18 19 20 21 22 23 24 25 26 27 28 29 30 31 32 33 34 35 36 37 38 39 40 41 42 43 44 45 46 47 48 49 50
805
ASUS43 KMKX 260321
RWRWI

WISCONSIN REGIONAL WEATHER ROUNDUP
NATIONAL WEATHER SERVICE MILWAUKEE/SULLIVAN WI
1000 PM CDT SUN SEP 25 2016

NOTE: "FAIR" INDICATES FEW OR NO CLOUDS BELOW 12,000 FEET WITH NO
SIGNIFICANT WEATHER AND/OR OBSTRUCTIONS TO VISIBILITY.

WIZ001-002-006>008-014>016-023>028-260400-
NORTHWEST WISCONSIN

CITY           SKY/WX    TMP DP  RH WIND       PRES   REMARKS
SUPERIOR ARPT  LGT RAIN  54  51  90 W13       29.82S
ASHLAND        CLOUDY    58  51  78 SW13G24   29.81S
HAYWARD        CLOUDY    54  50  86 SW8       29.87S
SIREN          CLOUDY    55  47  76 W13         N/A
CUMBERLAND     PTCLDY    52  46  82 W12G23    29.92S
RICE LAKE      CLOUDY    55  48  77 W13G20    29.93S
CHETEK         NOT AVBL
LADYSMITH      CLOUDY    56  52  88 W10G16    29.91R
EAU CLAIRE     CLOUDY    57  51  80 W12       29.94R
MENOMONIE      MOCLDY    56  55  98 W15G24    29.96R
NEW RICHMOND   CLEAR     53  45  74 W12       29.96S
OSCEOLA        CLEAR     55  45  70 W10G21    29.98S
$$

WIZ003>005-009-010-017-018-260400-
NORTH CENTRAL WISCONSIN

CITY           SKY/WX    TMP DP  RH WIND       PRES   REMARKS
MANITOWISH WTR NOT AVBL
ARBOR VITAE    CLOUDY    59  55  84 SW8       29.83F
WOODRUFF       CLOUDY    59  55  84 SW8       29.83F
RHINELANDER    MOCLDY    58  53  84 SW8       29.85F
EAGLE RIVER    MOCLDY    56  50  80 SW7       29.82F
LAND O LAKES   MOCLDY    57  52  82 SW3       29.83F
PHILLIPS       CLOUDY    55  55  99 SW9       29.86S
TOMAHAWK       MOCLDY    57  51  81 W9        29.86F
MEDFORD        CLOUDY    56  56 100 W8        29.89F
MERRILL        CLOUDY    58  53  83 W16       29.88F
$$

WIZ029-030-035-036-043>047-260400-
CENTRAL WISCONSIN

CITY           SKY/WX    TMP DP  RH WIND       PRES   REMARKS
WAUSAU         CLOUDY    59  52  77 W10       29.87F
MOSINEE        NOT AVBL
MARSHFIELD     CLOUDY    57  53  86 W14G22    29.91F
STEVENS POINT  CLOUDY    60  53  78 W12G21    29.90F
WAUPACA        CLOUDY    64  56  75 SW9       29.90S
WAUTOMA        CLOUDY    63  55  75 W9        29.91F
WISC RAPIDS    CLOUDY    59  55  87 W9        29.93S
CAMP DOUGLAS   CLOUDY    59  54  84 W16       29.95R
$$

WIZ011>013-019>022-031-037>040-048>050-260400-
NORTHEAST WISCONSIN

CITY           SKY/WX    TMP DP  RH WIND       PRES   REMARKS
ANTIGO         CLOUDY    56  54  91 CALM      29.87F
SHAWANO        CLOUDY    63  58  83 W5        29.86F
OCONTO         NOT AVBL
STURGEON BAY   LGT RAIN  65  61  87 W15G23    29.85R
GREEN BAY      CLOUDY    64  61  90 W9        29.86F
MANITOWOC      CLOUDY    66  61  84 W10G16    29.87R
APPLETON       MOCLDY    63  54  72 W12       29.88S
CLINTONVILLE   NOT AVBL
OSHKOSH        CLOUDY    64  54  69 W8        29.88F
$$

WIZ032>034-041-042-053>061-260400-
SOUTHWEST WISCONSIN

CITY           SKY/WX    TMP DP  RH WIND       PRES   REMARKS
LA CROSSE      CLOUDY    62  53  72 W10       29.97S
SPARTA         CLOUDY    59  54  83 W8        29.97F
VIROQUA        CLOUDY    57  52  84 W10       30.00S
BOSCOBEL       CLOUDY    63  53  70 W9        30.00R
PRAIRIE DU CHI CLOUDY    62  50  66 W13G21    30.01S
PLATTEVILLE    CLOUDY    62  53  73 W10G22    30.02R
$$

WIZ056-057-062-063-064-067-068-260400-
SOUTH CENTRAL WISCONSIN

CITY           SKY/WX    TMP DP  RH WIND       PRES   REMARKS
REEDSBURG      NOT AVBL
BARABOO/DELLS  CLOUDY    61  51  69 W7        29.95S
LONE ROCK      CLOUDY    63  52  67 W15       29.98S
MINERAL POINT  CLOUDY    63  54  72 W14G23    30.00R
MADISON        CLOUDY    64  53  67 VRB7      29.95F
MIDDLETON      CLOUDY    63  54  71 W9        29.97S
WATERTOWN      LGT RAIN  63  56  79 W8        29.94S
MONROE         CLOUDY    63  52  67 W14       29.99S
JANESVILLE     NOT AVBL
$$

WIZ051-052-058>065-066-070>072-260400-
SOUTHEAST WISCONSIN

CITY           SKY/WX    TMP DP  RH WIND       PRES   REMARKS
MILWAUKEE      CLOUDY    70  64  81 W13       29.91R
WAUKESHA       LGT RAIN  63  55  77 W13G21    29.94R
MILWAUKEE/TIMM CLOUDY    64  57  77 W16G25    29.91R
RACINE         CLOUDY    68  62  81 W12G17    29.93R
BURLINGTON     CLOUDY    64  54  71 W9G20     29.95R
KENOSHA        CLOUDY    67  59  75 W14G22    29.93R
FOND DU LAC    CLOUDY    64  57  78 W7        29.91R
SHEBOYGAN      LGT RAIN  66  61  84 W12G23    29.88R
WEST BEND      DRIZZLE   63  57  82 W13G20    29.91R
JUNEAU         CLOUDY    63  53  70 W12G17    29.94F
$$

LSZ147-162-260400-
LAKE SUPERIOR

STATION/POSITION TIME  TEMP    WIND        PRES    WAVE
                       AIR SEA DIR/SP/G            HT/PER
                 (UTC) (F)     (DEG/KT/KT) (MB)    (FT/S)
W MID LAKE BUOY  0250   62 60  230/ 19/ 23 1006.0F   4/ 6
DEVILS ISLAND    0300   57     240/ 20/ 25 1007.7F
SAXON HARBOR     0200   61     220/  8/ 13 1009.1
$$

LMZ867-665-643>646-260400-
LAKE MICHIGAN

STATION/POSITION TIME  TEMP    WIND        PRES    WAVE
                       AIR SEA DIR/SP/G            HT/PER
                 (UTC) (F)     (DEG/KT/KT) (MB)    (FT/S)
CHAMBERS ISLAND  0200   67     160/  7/ 12 1009.5S
N MID LAKE BUOY  0250   67 67  180/ 17/ 21 1008.7F   4/ 5
NORTHPORT PIER   0300   67     190/  5/ 22 1009.8R
KEWAUNEE LAKESHO 0200   67     210/  6/  9 1010.3F
SHEBOYGAN LAKESH 0300   68     290/ 20/ 24 1010.9R
PORT WASHINGTON  0200   71     270/  8/ 12 1012.5R
ATWATER BUOY     0300   66 53  260/ 16/ 21 1012.6R
MILWAUKEE LAKESH 0310   68     280/ 13/ 16   N/A
S MID LAKE BUOY  0250   74 72  160/ 14/ 17 1010.6F   2/ 3
KENOSHA   LAKESH 0300   69     280/ 20/ 26 1012.9R
$$

TC  - TEMPERATURE IN CELSIUS
VSB - VISIBILITY IN STATUTE MILES
WCI - WIND CHILL INDEX
HX  - HEAT INDEX





USA.gov is the U.S. government's official web portal to all federal, state and local government web resources and services.